Terug naar catalogus

THORAD AGENA D DEB

ActiefPO
NORAD 5347·DEBRIS·🇺🇸 United States

Gelanceerd Apr 8, 1970 vanaf Vandenberg Space Force Base

Loading…

Volgende Passages (komende 24 uur)

TLE

VersSource: Space-Track

Epoch: Sep 14, 2026, 05:20 UTC

1 05347U 70025KL  26257.22238005  .00000484  00000-0  45128-3 0  9996
2 05347  99.9055 177.5425 0044450 321.6524 198.1382 13.87120810769251

Volg THORAD AGENA D DEB in realtime met AllMySat

Download on the App Store